ECMWFFLT2_500_spd_021.txt.gz
Wind_Speed
30 25 24 26 27 23 22 28 35 35 31 29 23 20 18 15 14 17 18 19 18 20 24 25 24 24 24 25 27 29 31 32 33 31 28 26 25 24 22 20 18 19 19 18 18 18 19 20 19 19 20 22 23 23 22 22 23 23 23 24 25 25 24
30 24 21 27 29 26 25 29 32 31 27 25 23 23 24 23 22 18 15 18 20 20 23 26 27 25 24 25 25 28 30 31 33 32 29 28 26 25 24 22 19 18 18 18 19 20 20 20 19 19 20 22 22 22 21 21 23 23 23 25 26 27 26
24 21 19 27 28 25 26 31 27 21 22 25 27 27 28 27 25 21 15 14 17 19 21 24 27 27 25 23 23 27 29 29 30 30 26 24 23 24 25 23 21 19 18 17 20 22 21 19 19 20 21 21 22 21 21 21 23 24 23 25 27 28 27
20 23 21 30 32 29 30 32 26 19 15 15 20 25 26 27 25 22 18 17 19 20 21 23 26 27 25 22 24 29 30 28 27 26 25 25 26 25 24 25 24 21 19 18 20 22 20 19 20 20 20 21 21 21 21 21 23 24 25 26 27 28 27
27 31 28 28 33 32 33 33 29 24 19 12 15 20 22 25 27 24 23 24 24 23 24 24 24 25 26 27 30 31 30 28 28 28 31 32 31 26 23 24 23 20 17 17 18 20 19 19 20 21 21 20 21 22 22 22 23 25 26 27 28 28 27
31 33 30 25 25 28 34 33 32 29 25 19 19 21 20 23 28 26 23 25 27 25 25 26 24 25 27 29 31 31 30 30 32 33 33 32 31 28 25 23 21 19 17 16 18 19 19 20 20 21 21 22 22 22 23 24 24 25 26 27 29 29 27
28 28 27 26 19 20 31 38 37 36 35 29 23 21 20 21 24 24 22 24 28 27 25 25 24 25 26 27 29 29 30 31 33 34 33 31 30 29 26 22 20 19 17 17 19 20 21 21 21 22 23 24 25 23 24 25 25 26 27 27 29 28 28
27 24 22 25 23 18 26 35 34 33 36 31 22 18 22 22 20 19 21 26 31 30 27 26 25 25 25 27 29 31 34 35 32 31 32 31 30 29 27 23 20 19 17 18 20 21 23 22 22 24 25 26 27 26 26 26 26 27 26 26 28 29 29
28 26 23 26 30 27 25 29 29 25 26 26 22 20 23 25 22 19 19 25 31 32 30 28 28 29 30 32 33 34 36 37 33 31 30 30 29 29 29 26 21 19 18 19 21 23 24 24 25 26 26 28 29 28 27 27 27 27 26 26 27 28 29
32 32 27 28 33 32 27 29 33 30 27 28 28 27 25 25 24 24 22 24 28 30 31 32 32 33 33 34 37 37 37 37 35 31 28 27 28 28 28 26 22 20 20 21 22 24 25 26 27 27 28 29 30 29 28 26 26 26 26 26 26 27 28
34 32 25 25 32 34 28 26 32 37 34 32 32 30 27 24 25 28 29 29 30 31 33 33 33 32 32 35 38 40 40 37 32 29 27 26 25 25 27 27 25 21 21 22 23 24 25 26 27 27 28 28 29 30 29 27 26 26 26 26 26 28 29
35 35 29 24 27 33 29 23 25 34 36 33 32 32 29 26 25 28 30 31 33 34 34 34 32 32 34 35 36 39 42 40 34 29 28 25 21 21 24 27 28 24 22 23 24 25 25 26 26 27 28 28 28 30 31 29 26 26 26 26 27 28 28
36 39 36 28 23 26 27 24 23 28 31 30 31 33 31 30 29 28 28 28 30 32 34 36 36 36 38 38 37 37 38 39 34 27 25 24 23 22 23 25 28 27 25 25 25 26 27 27 26 27 28 29 29 30 31 30 28 27 27 26 26 28 26
39 39 40 35 28 26 28 27 24 25 27 27 28 32 32 31 29 26 26 28 31 33 34 36 38 40 43 44 43 36 29 27 27 26 26 28 28 28 27 27 28 29 29 28 27 27 28 28 28 28 29 30 31 30 30 30 30 29 27 25 26 27 26
43 40 41 39 36 34 31 30 28 27 26 24 25 29 32 34 33 30 32 35 35 33 32 34 38 41 44 46 46 41 34 31 31 30 29 31 33 32 30 29 29 30 32 33 30 27 27 28 29 30 31 31 31 31 30 30 30 30 28 26 26 27 26
41 39 37 35 38 39 36 33 31 28 25 24 24 27 31 34 34 32 35 37 36 33 33 35 37 40 42 45 47 47 44 41 37 32 30 32 35 34 33 32 32 32 33 33 32 28 27 28 28 29 30 29 30 30 30 30 30 29 28 27 27 28 28
40 37 33 31 33 35 36 36 33 28 27 28 31 32 32 34 34 31 33 35 34 35 37 37 37 40 44 47 50 51 48 42 35 30 31 33 34 35 36 36 35 33 32 32 33 30 28 28 27 27 27 27 28 29 29 30 29 28 28 28 28 29 29
43 39 34 32 35 36 34 36 35 32 32 35 36 34 31 32 35 34 35 37 35 36 38 38 41 45 48 51 54 53 49 40 33 31 33 35 36 36 37 37 37 33 31 31 32 31 30 29 28 26 25 26 27 28 28 28 27 26 27 27 28 30 30
45 42 38 36 40 43 40 37 39 40 39 39 37 33 29 30 34 36 38 40 40 40 41 42 45 49 52 56 58 55 47 37 32 33 35 35 36 36 35 36 37 35 31 31 32 32 31 30 29 27 26 27 29 29 28 28 27 27 27 26 28 30 31
45 44 44 43 42 44 45 44 44 45 45 42 40 36 33 33 36 38 38 36 37 38 40 43 46 49 51 53 55 53 47 39 37 39 38 37 37 36 35 37 37 36 33 32 32 32 32 30 29 28 28 30 30 29 28 28 28 28 28 28 29 31 32
44 44 47 49 45 43 46 48 48 49 48 45 44 43 42 39 39 42 44 43 41 40 41 44 48 50 50 50 50 49 44 40 41 42 40 38 38 37 37 38 37 35 33 32 32 33 32 31 30 30 30 31 30 28 29 29 30 29 30 30 31 32 33
45 44 46 49 48 46 47 47 49 51 50 47 47 49 50 47 43 44 48 52 51 49 47 48 50 50 49 46 41 38 37 36 38 39 39 39 39 37 36 36 34 33 33 33 33 33 33 33 32 32 32 32 30 28 29 30 31 31 31 32 33 33 33
45 46 46 47 49 49 49 47 47 49 50 47 47 49 52 53 49 46 48 51 54 54 53 53 50 46 44 41 35 33 36 38 39 40 40 40 38 36 33 32 32 31 32 33 33 33 34 35 34 33 33 32 30 30 31 31 31 32 32 33 33 33 33
38 41 42 42 44 47 50 49 47 47 49 49 47 48 51 54 53 52 51 51 55 58 59 57 53 47 44 43 40 39 40 42 40 40 38 34 32 32 31 31 31 32 33 34 35 34 35 35 35 34 33 32 31 32 32 32 32 32 32 33 33 32 33
34 36 38 38 39 41 44 46 46 44 44 43 43 46 50 53 55 56 55 53 54 57 57 56 54 50 46 45 44 41 41 41 38 37 36 33 29 29 31 32 32 32 35 37 38 38 38 37 36 35 33 32 32 32 33 33 33 33 33 32 32 32 34
37 38 39 38 37 38 39 40 42 41 39 38 38 41 44 47 50 51 53 52 52 53 53 52 50 49 46 43 41 37 37 38 36 35 36 35 32 30 31 32 33 34 37 40 43 43 42 40 38 35 33 33 33 33 34 34 33 33 33 32 33 33 34
40 40 39 37 37 38 40 41 41 41 40 39 39 40 41 41 42 42 44 47 46 47 49 48 46 43 39 37 36 34 34 36 36 35 36 36 35 34 31 32 34 36 39 43 46 48 45 41 38 35 33 33 34 34 34 33 33 33 34 33 34 35 35
42 40 37 35 35 37 39 40 41 41 41 39 38 39 39 40 42 40 40 41 41 42 44 43 39 36 33 33 34 34 33 33 35 36 37 37 37 36 34 34 35 37 40 43 45 47 46 40 35 34 33 33 33 33 33 33 33 34 34 34 34 35 37
43 42 40 39 39 40 41 41 40 41 42 41 41 40 39 40 42 41 39 38 37 37 38 35 32 32 33 33 33 33 32 32 33 35 37 37 37 36 36 37 36 36 39 41 40 40 42 40 35 34 32 31 31 31 31 32 33 33 34 33 33 34 36
42 44 43 42 42 42 41 41 40 39 40 41 40 38 37 37 38 37 35 35 36 37 36 34 33 34 35 34 33 33 34 34 34 36 36 35 35 35 36 37 37 36 38 40 38 34 35 37 33 31 29 29 31 32 32 32 33 33 32 32 33 34 36
39 41 41 40 41 41 41 41 40 37 36 37 35 32 31 31 33 34 35 37 39 38 36 34 33 33 33 33 34 34 33 33 34 35 35 34 35 37 37 37 37 36 37 39 38 33 32 36 34 29 28 29 31 32 33 33 33 32 31 31 33 36 38
37 37 37 36 36 39 40 42 42 40 38 37 36 34 34 34 33 32 34 35 36 36 33 32 32 33 34 35 35 34 33 34 35 36 37 36 36 37 38 38 39 39 39 40 40 37 34 41 39 31 28 30 32 33 33 35 37 37 34 33 34 37 39
40 41 41 39 37 36 37 39 41 43 42 39 37 35 34 34 34 34 35 37 38 37 35 34 35 36 37 37 36 36 36 36 36 37 38 38 37 37 38 38 39 41 41 41 41 39 35 40 43 39 38 40 42 41 38 39 42 41 37 35 37 40 43
43 43 44 44 43 43 43 40 39 39 39 38 36 34 33 33 34 36 37 38 38 38 37 36 36 37 38 38 37 38 38 37 37 37 37 38 39 38 38 38 39 43 44 43 43 41 39 42 47 48 50 52 51 48 43 40 40 39 39 40 43 46 47
48 47 46 45 42 38 36 35 33 32 33 35 35 34 34 34 35 35 35 35 36 37 37 37 36 36 37 37 37 38 38 38 38 38 38 39 40 40 40 40 40 42 44 45 45 44 43 44 46 48 52 53 50 46 42 39 40 42 44 46 48 49 49
47 45 44 44 41 36 33 31 30 29 31 34 34 34 34 33 32 32 32 33 34 35 36 37 38 38 37 36 37 38 40 40 40 39 39 40 41 41 42 42 42 43 44 46 47 46 45 44 45 48 50 48 44 41 41 43 45 47 48 49 49 50 50
42 41 39 39 39 38 37 36 34 32 31 32 33 33 34 33 31 32 33 34 35 36 37 38 41 42 41 38 37 38 40 41 42 42 41 42 42 43 43 44 44 44 45 46 46 46 45 43 42 45 47 48 46 46 48 50 51 50 50 50 50 50 50

ECMWFFLT2_500_spd_024.txt.gz
Wind_Speed
30 29 29 30 33 33 33 42 45 42 39 36 33 31 29 28 29 32 34 38 43 41 37 34 34 34 29 24 21 21 21 21 21 19 18 17 16 16 14 10 8 10 12 13 14 15 16 18 19 19 20 20 21 22 21 21 20 20 20 19 19 19 19
27 24 27 31 32 30 31 38 44 42 37 35 34 31 29 29 29 29 28 30 36 35 31 28 27 27 25 22 21 21 21 21 19 19 18 17 17 16 14 12 13 16 17 15 15 16 17 19 20 19 19 21 22 23 23 22 21 21 20 20 20 20 20
25 23 29 34 34 31 28 29 36 41 38 36 37 34 31 31 31 32 28 25 26 25 24 24 22 22 22 21 21 21 20 20 20 21 21 20 19 19 18 17 19 22 21 18 17 18 19 20 20 20 20 21 22 24 24 23 22 22 22 21 21 22 21
27 27 31 36 36 33 30 28 31 38 37 33 34 33 33 32 33 36 34 29 27 24 23 23 22 21 21 21 21 21 21 21 23 24 24 22 22 23 23 23 24 25 23 21 18 18 20 21 21 20 19 21 22 23 24 23 23 23 23 23 24 25 24
30 32 33 30 26 26 33 37 36 37 37 33 31 31 33 35 36 36 33 31 29 26 23 22 22 21 21 20 18 18 21 23 24 24 23 24 25 26 26 26 26 25 22 21 18 17 18 19 19 19 19 20 22 23 24 23 23 22 23 24 26 27 26
32 34 30 22 16 19 30 40 38 35 33 30 30 31 30 31 33 32 28 27 27 26 24 23 25 25 25 23 22 21 22 22 22 23 24 26 27 27 27 26 24 23 21 20 18 17 17 17 17 18 19 20 22 23 24 24 23 23 24 25 26 28 28
32 32 28 22 18 19 28 36 34 31 30 29 29 29 24 22 25 27 26 28 30 30 29 28 29 30 30 29 27 24 23 22 22 23 25 27 28 28 29 27 24 22 21 20 19 17 16 16 16 18 19 21 22 24 25 25 24 25 26 26 27 28 28
33 30 26 23 20 22 31 36 33 31 31 30 30 29 24 21 23 25 26 29 31 31 30 31 30 31 32 32 29 26 23 23 24 25 27 28 29 31 31 30 26 22 19 18 17 16 15 15 16 17 19 21 22 24 25 26 26 27 27 27 27 27 28
36 32 29 27 25 26 34 38 35 33 32 33 33 32 28 25 23 24 24 27 29 29 28 28 27 28 30 31 30 28 26 26 27 27 27 29 31 32 32 30 27 21 16 15 15 15 15 16 16 18 19 21 22 23 25 26 27 28 28 27 27 27 27
40 36 32 30 29 28 31 34 34 33 33 36 38 36 33 30 26 25 25 26 28 29 27 25 25 25 26 29 31 31 30 29 28 27 27 28 31 31 29 27 26 21 15 14 15 15 16 17 18 19 21 22 22 23 25 26 27 27 27 26 26 27 27
41 37 29 24 25 27 28 30 30 30 30 35 41 40 37 35 30 28 27 26 26 28 27 26 27 26 26 29 31 32 32 31 29 30 29 29 29 29 28 28 26 21 16 14 15 16 18 19 19 21 22 23 23 24 25 26 26 26 26 26 27 28 28
37 32 27 26 27 26 25 25 26 27 26 30 41 43 39 36 34 30 27 26 25 24 25 27 29 29 30 31 32 32 33 32 33 33 32 31 31 29 26 24 23 20 19 19 19 19 20 20 21 22 23 24 25 25 26 26 25 26 26 27 28 29 28
36 29 26 29 32 31 28 24 24 25 23 25 36 43 40 38 39 35 31 30 30 28 26 27 28 29 29 30 31 32 33 35 37 36 33 32 31 26 22 22 24 25 25 25 24 24 24 24 25 25 25 25 25 26 26 26 26 26 28 29 29 28 27
36 31 27 28 32 35 32 27 25 26 25 24 29 38 41 39 38 38 36 35 35 32 30 27 25 25 26 28 31 32 34 37 38 36 34 33 30 27 26 28 32 34 32 29 27 26 27 28 29 29 28 27 26 26 27 27 27 27 29 29 28 27 25
38 33 30 29 32 35 33 29 30 31 32 31 29 33 40 40 36 36 36 36 36 34 32 29 27 27 29 30 32 34 37 39 39 39 38 36 34 32 30 30 31 33 34 32 29 28 28 30 32 32 31 29 28 28 28 28 28 29 29 28 27 25 24
43 39 36 32 32 34 33 31 34 36 35 35 32 33 38 40 36 35 36 39 37 33 31 30 29 30 32 34 36 39 40 40 40 40 40 39 37 34 32 31 32 34 34 34 33 31 31 32 33 33 32 31 30 29 29 29 29 30 29 28 26 26 26
43 41 40 37 34 34 34 34 38 39 37 34 32 33 38 39 36 35 36 39 37 32 30 31 32 34 36 38 39 40 40 40 41 41 42 42 39 36 35 36 39 40 37 34 34 35 34 34 34 34 33 33 32 31 30 30 30 30 31 30 29 27 27
40 39 39 40 39 39 38 37 37 37 39 38 34 34 38 40 39 37 36 36 34 33 31 30 31 34 36 37 37 39 41 42 42 43 42 41 39 38 39 41 44 44 38 34 35 36 35 36 37 37 35 35 34 33 32 31 31 32 32 32 30 28 28
42 40 39 41 44 46 44 42 39 36 37 41 41 37 36 38 40 40 39 36 34 34 33 31 29 29 33 37 39 40 41 41 41 41 40 39 39 41 43 45 46 44 42 41 41 39 38 39 38 37 37 36 35 35 33 32 32 32 33 33 32 30 30
47 44 42 43 45 46 46 47 45 41 38 39 41 40 37 36 38 39 39 39 39 39 38 37 36 34 33 36 38 38 38 39 39 38 39 41 42 44 46 46 45 45 46 46 44 41 41 41 40 39 38 37 37 36 35 34 33 33 34 35 33 32 32
51 48 46 45 45 43 44 47 48 45 42 40 40 40 40 40 39 38 39 41 42 44 45 45 45 41 35 33 35 35 36 39 41 41 43 44 44 46 46 44 43 43 43 42 42 42 43 42 41 41 40 38 38 38 37 36 35 35 36 36 34 31 30
47 50 49 48 47 45 44 45 49 49 47 44 42 41 42 42 40 39 42 44 44 45 46 45 44 41 38 37 38 41 43 46 47 47 46 45 45 45 43 39 38 40 41 41 42 42 43 42 41 42 42 41 41 41 40 38 37 36 36 36 34 31 30
43 48 50 50 50 51 50 48 50 52 50 48 45 42 43 45 43 40 42 44 45 44 42 39 36 35 39 43 46 48 49 50 50 48 46 44 44 44 42 39 39 40 41 41 40 40 40 40 41 44 44 45 47 48 45 40 36 36 36 34 32 31 30
47 48 50 51 50 52 55 54 53 52 53 52 49 46 45 45 43 42 42 42 43 44 42 39 37 36 39 43 45 48 49 49 49 48 46 46 47 48 48 46 44 40 39 38 38 38 38 40 43 44 45 49 53 53 48 41 36 35 36 33 31 31 30
52 52 52 53 53 54 57 59 58 55 53 52 51 50 50 48 45 44 44 43 44 46 46 46 46 46 46 46 48 48 48 48 50 52 52 54 55 55 53 49 43 39 37 37 38 38 39 41 43 42 42 45 48 47 44 40 37 36 35 33 31 32 31
51 53 54 54 55 56 58 59 59 57 54 51 51 52 53 52 49 48 47 47 47 49 50 51 53 54 55 56 56 56 54 54 55 55 55 55 56 55 49 42 37 36 37 38 38 39 40 41 43 42 38 38 40 40 36 32 33 34 34 32 31 31 29
50 52 54 55 56 58 58 57 58 58 55 53 53 54 54 54 52 52 51 51 52 52 54 55 56 55 56 57 58 60 61 61 59 57 55 53 52 49 43 37 35 35 36 37 38 39 40 41 42 42 36 34 36 34 32 30 28 29 30 30 29 27 26
55 54 54 55 56 56 54 52 54 57 57 54 55 57 57 57 57 57 56 56 56 55 54 54 53 52 52 52 54 57 58 58 58 58 57 53 48 42 38 37 36 35 35 36 36 37 39 39 41 41 38 35 32 27 35 35 28 23 24 26 23 21 22
52 52 52 52 51 50 47 43 43 48 50 49 50 53 56 57 59 59 60 60 58 56 53 51 50 51 52 51 49 50 51 52 53 52 49 44 40 38 37 38 37 36 34 34 34 34 35 36 38 40 40 38 33 28 39 38 26 21 21 20 18 22 30
44 46 49 51 49 47 44 41 39 40 43 45 46 48 50 52 52 53 53 54 53 49 47 46 48 50 50 47 44 45 46 45 43 40 36 33 33 34 34 34 34 34 33 32 32 33 34 34 35 38 38 37 35 31 41 41 33 29 26 22 21 30 36
44 45 48 51 50 48 46 43 40 39 41 42 41 42 44 46 47 48 48 46 45 44 44 44 44 43 40 37 37 39 39 36 34 32 30 30 30 30 31 32 32 32 32 33 34 34 34 34 34 35 36 36 34 31 35 39 35 29 27 28 33 40 41
44 45 46 47 48 48 48 46 43 41 41 41 40 41 44 46 46 46 44 42 41 43 45 43 40 35 32 30 31 32 32 31 30 31 31 31 31 32 32 33 33 33 33 33 34 34 34 34 34 34 35 36 35 31 32 37 38 37 39 45 52 54 52
40 42 43 43 43 43 42 41 40 40 41 42 42 41 42 45 46 45 42 40 39 40 40 39 34 31 30 30 31 32 32 32 32 32 32 32 33 33 33 33 34 34 34 33 34 35 35 34 34 34 35 36 37 36 37 40 43 46 50 55 57 57 53
37 38 39 40 39 38 36 36 36 36 34 34 35 34 34 39 44 43 39 37 37 37 37 36 33 32 31 31 32 32 32 31 31 31 31 31 32 32 33 33 33 33 34 34 35 36 37 36 35 36 37 38 39 41 43 43 43 46 51 55 55 51 45
38 38 39 39 37 35 35 36 36 36 34 32 32 32 32 33 37 37 35 33 33 32 32 32 31 31 30 30 30 30 29 30 30 31 31 31 32 32 32 33 33 34 35 35 35 36 38 38 38 38 38 40 42 44 45 44 43 46 51 51 47 43 41
39 39 40 39 38 37 38 37 37 37 37 36 34 34 33 33 35 36 35 32 30 28 28 29 29 29 28 28 29 29 29 30 30 31 32 33 33 34 34 34 35 35 36 37 38 38 39 39 40 41 41 42 43 43 43 41 42 46 49 49 46 46 47
41 41 40 40 40 40 40 40 39 39 39 37 35 35 35 36 36 36 33 31 29 29 29 29 29 29 29 29 30 31 32 33 33 34 34 35 35 35 35 35 36 37 38 39 40 41 41 41 42 42 43 43 42 41 41 40 41 45 49 50 51 53 54

ECMWFFLT2_500_spd_030.txt.gz
Wind_Speed
50 50 50 50 51 49 47 47 48 48 47 44 43 44 43 41 41 41 41 39 36 32 27 24 22 20 17 16 18 15 9 10 15 16 17 19 21 19 16 12 10 10 11 11 11 12 13 13 14 15 15 16 18 18 19 19 19 18 19 20 21 22 21
53 52 51 51 52 52 50 49 48 48 48 46 45 47 47 46 45 45 44 41 38 35 31 26 23 21 18 15 13 11 9 12 15 16 17 19 20 19 17 14 12 13 14 14 14 14 14 14 15 15 14 14 16 17 18 19 19 19 20 21 21 22 22
55 54 54 54 54 55 55 51 49 51 51 50 48 49 50 49 48 47 45 43 41 38 33 29 25 22 18 15 12 10 9 10 12 12 14 16 18 19 17 14 13 15 16 16 16 15 16 16 16 15 13 12 12 14 17 18 19 20 21 21 22 22 23
55 56 59 58 56 57 58 56 55 55 54 52 51 50 51 50 50 48 47 46 44 40 35 31 27 22 17 13 11 11 12 12 12 13 14 14 15 17 15 13 15 16 17 17 17 17 17 17 17 16 14 11 11 12 14 16 18 19 20 21 22 24 25
54 57 58 56 56 58 60 59 58 57 56 54 53 53 52 52 52 50 48 48 47 42 36 33 28 21 17 14 12 13 14 14 16 17 16 14 15 16 15 15 17 18 18 17 17 18 18 18 18 17 15 13 12 12 13 14 16 17 19 21 23 25 26
52 54 54 52 54 58 59 59 57 56 56 54 54 55 55 53 54 53 51 51 49 43 38 35 30 24 20 18 16 16 17 17 19 19 17 16 17 17 16 17 18 18 17 16 16 17 17 17 17 16 14 13 12 12 13 14 15 16 19 21 23 25 28
49 50 50 51 54 56 58 60 58 55 56 55 55 55 54 53 55 55 54 52 50 45 39 36 34 28 23 22 20 20 20 21 22 20 17 16 17 17 18 19 19 18 17 16 16 16 15 14 14 14 12 12 12 12 14 15 16 18 20 22 24 26 27
49 47 47 51 54 57 59 60 58 56 56 55 55 53 51 53 56 55 54 54 51 48 43 40 38 32 26 26 24 22 22 22 22 20 18 17 17 17 19 19 19 18 17 16 16 14 13 12 11 11 11 11 12 14 15 16 18 20 22 23 25 26 27
49 48 49 52 55 58 59 58 57 57 55 55 55 52 50 55 57 56 56 55 52 46 41 41 40 34 28 25 22 21 21 21 21 20 20 20 18 18 19 20 20 19 17 15 13 10 8 7 7 8 10 12 13 15 17 19 21 23 24 26 27 28 29
50 52 53 54 55 57 58 57 57 56 55 55 55 54 55 57 57 56 57 56 52 44 37 37 39 35 29 23 19 17 18 19 20 21 22 20 18 18 19 19 20 18 15 13 10 8 6 6 7 9 12 14 16 17 19 21 23 25 26 28 30 30 31
45 49 49 49 51 54 55 54 54 54 54 55 55 57 59 58 55 54 51 49 48 44 40 38 37 34 29 24 19 18 17 18 18 19 19 17 16 17 18 18 17 15 12 11 11 10 10 10 11 12 14 16 18 20 21 23 25 26 28 29 31 31 33
37 41 43 45 47 51 52 52 51 52 53 55 57 59 59 55 53 50 45 43 44 43 42 40 36 32 30 26 22 20 19 18 18 19 18 17 16 17 18 16 14 13 12 13 13 13 13 12 12 13 15 17 19 21 23 25 26 28 29 30 31 32 35
30 35 39 43 46 49 52 52 51 52 54 56 57 57 55 54 53 47 41 40 42 40 37 34 31 30 30 26 22 21 21 20 20 20 20 18 17 17 16 15 14 14 15 16 16 16 15 14 13 14 15 17 19 21 23 25 27 28 29 30 32 36 40
28 31 36 42 46 49 52 54 53 53 55 57 57 55 53 53 51 46 41 39 38 33 29 26 26 28 29 26 24 24 23 22 21 21 20 18 18 17 16 16 17 16 17 18 18 19 19 17 15 15 17 18 20 22 24 26 27 29 31 33 36 40 44
30 30 33 40 46 49 52 55 55 54 54 55 55 54 52 49 47 44 42 41 37 31 27 26 26 28 28 27 28 27 24 22 22 22 20 20 20 18 18 19 19 19 19 19 19 20 21 21 18 18 19 21 22 24 24 25 26 28 31 34 38 42 44
34 33 32 37 44 49 53 57 57 55 53 52 51 51 50 48 47 45 45 43 37 31 29 29 27 27 28 28 30 29 27 25 25 24 22 22 21 19 20 22 22 21 21 20 21 22 24 24 23 22 22 24 25 25 23 22 23 26 30 35 39 41 43
39 36 34 35 38 46 55 59 57 55 54 51 48 47 47 47 47 47 46 41 34 30 31 31 29 28 28 28 29 30 30 30 30 29 27 25 22 21 23 25 25 24 23 22 23 25 27 28 27 26 26 27 27 26 24 23 25 30 35 39 41 42 44
41 37 35 35 38 46 54 57 57 56 55 52 48 46 45 45 45 45 43 38 34 34 35 33 31 30 29 28 29 30 30 31 31 30 29 27 25 25 27 28 28 27 26 25 26 28 31 32 32 30 29 29 29 28 27 29 32 36 40 41 41 43 44
42 38 37 39 41 44 50 55 57 57 54 50 47 45 44 43 44 43 40 37 36 36 35 34 33 32 30 29 29 31 32 30 28 29 29 28 28 29 30 30 30 29 28 29 31 33 35 35 35 35 34 33 32 31 32 34 37 39 40 41 42 44 43
41 39 38 40 40 40 46 53 56 56 53 48 45 44 43 43 43 41 37 36 36 35 34 35 35 34 33 31 30 32 33 31 31 31 30 28 28 28 30 31 32 31 31 33 35 36 37 38 38 39 39 39 38 37 37 38 39 40 42 42 43 45 44
39 40 38 38 37 36 43 51 55 54 51 47 44 41 40 41 41 39 37 36 35 34 34 35 35 35 35 33 32 33 34 35 36 35 32 30 29 30 31 33 33 34 35 35 36 37 38 38 40 41 41 41 42 42 41 41 42 44 45 45 46 46 46
38 40 39 38 36 35 39 46 53 54 50 46 44 41 38 39 39 38 37 36 36 36 36 35 34 35 37 35 33 34 36 37 38 36 34 32 31 32 33 33 33 34 35 36 38 38 38 39 41 41 41 41 43 44 45 45 47 48 48 48 49 48 48
39 40 39 38 36 34 34 39 47 51 49 47 45 42 38 38 38 38 37 36 37 39 38 36 36 37 38 36 34 34 34 35 35 35 35 33 32 32 32 32 34 36 36 37 38 39 40 41 41 41 41 43 45 47 48 50 50 51 52 52 51 51 49
39 39 40 38 36 34 32 35 40 44 46 48 48 45 40 38 38 40 41 40 41 41 41 43 43 40 38 37 36 35 34 32 32 32 32 32 32 32 34 36 39 40 39 38 38 39 41 42 42 43 44 45 47 49 50 52 52 53 54 54 54 53 51
38 38 39 39 36 33 32 32 34 38 43 48 49 46 42 40 39 40 40 41 42 43 45 46 44 40 37 37 36 35 33 30 28 29 30 31 33 36 39 42 44 44 43 42 42 43 44 43 44 45 46 47 49 51 52 53 54 54 54 55 54 52 50
35 33 35 37 36 33 32 31 32 37 41 45 45 41 38 39 41 41 39 39 40 42 44 45 43 41 41 39 37 36 34 32 30 31 32 34 36 38 41 43 45 46 47 47 46 46 46 46 47 49 50 50 52 53 53 53 53 53 53 53 51 49 47
33 29 30 34 34 34 34 32 34 37 39 40 40 38 35 35 38 41 41 39 38 37 38 39 38 39 41 40 39 39 40 41 40 39 38 39 39 40 42 45 47 49 49 48 47 47 48 50 51 53 53 54 55 54 54 53 52 52 51 49 47 46 45
36 29 29 31 32 34 36 35 36 38 38 38 39 39 38 37 36 37 37 37 35 32 30 30 30 32 35 36 38 38 39 42 44 43 42 44 45 47 49 51 52 51 50 49 50 50 51 53 54 55 56 56 56 56 55 53 51 48 45 43 43 43 42
39 34 33 34 35 36 38 39 39 39 38 38 38 39 39 38 34 30 29 29 29 28 28 28 29 31 33 35 36 36 37 38 40 41 43 45 47 49 51 51 51 51 51 51 51 52 54 56 57 57 57 56 57 57 55 50 46 43 41 41 41 41 41
42 39 37 39 39 38 40 43 45 45 42 39 37 37 36 35 32 29 27 27 27 27 27 28 28 29 30 30 32 33 33 35 36 38 40 42 45 46 48 50 51 52 52 53 55 58 60 59 57 57 58 60 58 54 49 44 41 40 40 40 40 41 42
43 41 39 41 44 43 43 43 43 43 43 39 36 35 35 35 35 34 32 31 30 29 29 30 29 30 30 30 31 32 33 34 35 38 42 45 47 49 52 54 55 56 56 57 60 63 63 60 58 58 58 54 48 43 41 40 40 40 40 41 41 42 42
43 41 38 39 44 47 48 44 39 37 37 35 34 35 36 36 37 38 36 34 33 33 34 33 32 31 31 31 32 33 35 37 40 43 46 48 50 52 55 56 57 58 59 59 60 61 59 54 50 46 43 39 38 38 39 40 40 41 41 41 41 41 41
43 43 40 36 38 42 46 46 42 39 36 34 34 36 38 39 40 39 38 37 36 36 36 35 34 33 32 33 34 35 37 40 42 44 44 45 47 49 51 54 55 58 59 59 57 54 48 43 38 36 35 37 38 39 39 39 39 39 39 39 40 41 41
39 41 41 39 37 38 42 44 43 40 39 37 37 38 40 41 42 43 43 42 39 36 35 36 37 37 36 36 37 37 38 40 41 41 42 44 45 45 45 46 49 53 56 54 48 42 38 37 36 36 37 38 38 38 37 37 37 38 38 39 40 41 42
34 37 39 42 43 42 42 44 44 41 39 39 39 39 41 42 43 45 46 45 42 40 40 40 41 40 39 40 41 41 41 42 41 39 39 39 39 40 40 38 36 38 40 37 33 32 33 34 35 35 36 36 36 37 37 37 37 38 39 39 40 41 43
30 36 41 45 46 46 46 48 48 45 41 40 41 42 42 41 42 44 45 46 47 46 45 43 42 41 39 39 39 39 39 39 38 36 35 34 34 36 36 34 32 31 31 30 30 31 33 33 33 34 35 35 36 37 38 38 38 38 39 40 41 42 43
30 36 41 42 42 43 46 49 51 50 48 45 45 46 45 43 42 43 43 45 46 45 42 40 39 39 37 35 35 35 35 35 36 36 35 34 34 34 34 33 33 32 32 31 32 33 33 34 34 35 36 37 38 38 39 39 38 39 40 40 40 41 42

ECMWFFLT2_500_spd_033.txt.gz
Wind_Speed
55 56 56 55 56 57 55 54 52 50 47 44 44 45 44 42 43 44 43 41 35 28 24 21 20 19 18 18 16 17 21 23 23 20 14 9 9 11 12 12 12 11 10 8 7 8 10 12 13 14 15 16 17 18 18 18 18 18 18 18 19 20 20
56 56 57 58 58 58 58 56 53 49 49 49 47 47 48 47 47 47 46 43 38 34 29 24 22 21 19 17 16 14 16 20 22 20 14 8 9 13 15 14 14 13 12 11 10 10 12 13 14 15 15 15 16 16 17 17 17 17 18 19 19 19 20
56 57 58 60 61 60 60 58 53 52 55 54 50 51 52 51 51 51 48 45 41 37 31 25 24 23 19 17 18 16 15 17 18 17 11 9 11 13 16 16 16 14 12 12 11 11 13 14 14 15 15 14 13 13 14 15 15 16 17 17 17 18 19
56 59 61 63 63 63 62 61 59 58 57 55 53 52 52 52 52 52 50 47 42 36 30 27 25 24 21 18 17 17 16 16 15 12 9 10 12 13 15 16 15 14 12 13 13 14 15 15 14 15 14 13 12 12 12 13 14 15 15 14 15 16 17
56 60 62 62 62 63 63 63 63 61 59 58 56 53 52 53 53 52 51 50 44 35 30 27 25 24 22 19 16 15 16 15 12 10 10 12 11 12 15 16 15 14 15 15 15 17 17 17 15 14 13 13 12 12 12 13 13 13 13 13 13 14 15
57 58 59 59 61 63 64 63 63 61 60 59 58 56 56 55 54 54 53 53 47 38 32 29 27 26 23 20 19 17 15 15 13 12 13 13 11 12 16 17 16 17 18 18 18 19 19 18 17 15 13 12 11 11 12 12 11 11 12 12 12 14 15
56 56 56 57 60 64 65 65 63 61 61 61 59 59 57 55 55 56 56 56 52 42 34 30 28 26 25 23 22 19 17 17 17 16 17 17 15 15 18 20 19 20 20 20 20 21 21 19 17 15 13 12 11 11 11 11 10 11 12 12 13 15 17
54 53 53 54 57 61 66 68 66 64 64 63 61 60 57 56 56 56 56 57 55 46 37 32 29 26 26 26 24 21 19 18 19 21 21 20 19 20 21 22 22 22 22 21 22 22 22 21 18 16 14 12 11 11 10 10 11 13 13 14 15 17 20
54 53 54 55 57 60 64 67 67 66 66 65 64 63 60 60 60 58 58 59 56 47 38 34 32 30 29 29 28 26 24 22 23 24 22 20 21 22 21 20 21 22 21 22 23 23 23 21 18 16 14 12 11 12 12 12 13 14 15 16 18 20 23
56 58 58 59 59 59 61 63 65 67 67 67 67 66 65 66 65 62 61 60 55 46 39 36 35 34 32 29 26 23 22 22 25 24 21 21 23 23 22 21 21 21 22 23 23 23 22 18 15 14 13 13 13 13 14 15 15 16 17 18 20 22 25
55 57 58 56 54 54 57 58 61 64 67 68 68 67 68 68 66 65 62 57 52 46 40 38 37 36 34 29 23 18 16 20 23 22 22 24 24 24 24 23 22 22 23 24 23 22 20 17 15 14 14 14 15 15 16 16 16 17 18 20 22 24 28
51 52 53 51 48 48 50 52 54 57 61 64 65 67 67 65 66 66 59 53 52 48 41 38 38 37 37 34 26 20 18 20 22 21 22 23 23 24 23 22 22 23 24 24 22 21 19 18 17 16 15 16 17 17 17 17 17 18 19 22 24 26 28
48 47 48 48 47 45 44 46 49 51 55 59 62 64 64 64 67 64 56 51 52 47 41 39 37 36 36 34 30 25 23 23 23 22 22 22 22 22 21 20 21 23 23 22 20 19 19 19 18 16 17 17 18 18 18 17 18 19 21 23 25 26 27
45 44 43 44 45 45 43 44 45 46 50 55 57 59 60 62 64 61 56 54 51 46 43 41 38 37 36 34 32 28 26 26 26 25 24 23 22 22 20 18 18 19 20 20 20 19 17 18 17 16 15 16 18 19 19 19 20 21 22 23 23 24 24
44 42 40 40 41 42 43 45 45 45 47 51 54 55 57 60 61 58 57 57 53 48 45 42 40 38 36 34 33 29 26 26 26 25 24 23 22 22 20 17 16 18 20 21 20 19 18 19 18 16 15 15 16 19 20 21 22 22 23 22 22 23 25
43 40 38 39 39 39 42 45 47 46 48 50 53 54 56 58 58 57 58 58 55 49 45 42 41 39 36 34 32 27 26 26 27 26 25 23 22 21 19 18 18 20 22 22 22 20 20 22 22 21 19 17 18 19 20 22 23 24 25 24 25 26 30
43 40 39 40 39 40 45 49 50 49 49 51 53 54 56 57 57 58 58 57 53 49 45 42 41 39 37 34 29 26 25 26 27 28 27 25 24 22 22 22 22 23 24 23 23 23 23 24 25 25 24 23 22 23 23 24 25 26 27 28 29 31 33
44 42 41 42 43 45 50 52 51 50 50 50 52 54 56 56 56 57 56 54 52 50 44 40 39 39 37 33 28 26 26 26 26 26 26 27 26 25 26 27 26 26 26 25 26 27 27 27 27 28 27 26 27 27 26 27 28 29 30 31 32 33 34
44 44 42 44 46 47 49 50 49 49 49 49 51 53 55 55 55 56 54 52 52 50 43 38 38 39 38 34 30 29 28 27 26 25 26 28 27 27 29 29 29 29 29 28 29 30 30 31 31 30 29 29 30 29 29 30 31 32 33 34 35 36 37
44 45 45 47 47 47 47 47 46 46 48 49 51 53 56 57 56 56 54 52 51 48 43 39 39 39 38 37 35 32 31 28 26 26 27 28 29 30 29 29 30 31 31 31 32 33 34 34 33 30 30 32 32 31 32 33 34 35 36 37 38 39 41
45 47 49 49 48 47 47 47 45 45 47 49 51 53 55 57 57 55 53 50 49 47 43 41 40 38 37 37 37 34 32 29 27 27 28 29 32 33 31 31 32 34 34 35 37 38 38 36 33 31 33 34 34 33 34 36 37 39 39 40 41 42 45
47 49 51 50 49 48 47 46 45 43 44 46 48 52 55 56 56 54 51 49 48 45 42 41 40 37 36 37 37 35 32 31 30 29 29 32 35 36 35 36 37 37 38 39 41 41 39 35 34 34 35 36 35 35 36 38 40 41 42 42 43 45 47
48 50 51 50 49 49 47 45 42 41 42 42 43 49 55 56 54 52 49 47 45 41 39 39 38 37 37 37 36 34 32 32 32 32 32 35 38 40 41 41 41 41 41 42 42 40 38 36 37 37 37 36 36 37 39 40 43 45 44 44 46 48 49
49 49 48 47 48 48 47 45 41 38 37 37 40 48 55 54 50 48 46 44 42 40 39 39 38 37 38 37 35 33 32 34 35 34 35 37 40 43 44 44 45 44 43 43 41 38 38 39 39 38 37 38 39 40 42 44 46 47 46 48 50 50 50
51 47 43 42 45 47 45 43 41 36 32 34 41 49 52 49 47 46 43 41 40 40 40 40 39 38 38 36 34 34 34 36 36 35 36 38 40 42 45 46 46 45 43 41 40 39 39 39 39 38 38 40 42 45 47 48 49 49 49 51 52 52 53
52 48 42 40 41 43 43 41 38 35 33 34 38 43 46 47 46 45 43 41 39 38 39 39 39 39 38 36 36 36 37 37 37 36 37 38 39 41 43 44 44 42 40 38 38 38 38 38 38 40 42 44 47 49 50 49 50 50 51 52 53 55 55
51 48 43 41 39 38 39 40 39 36 35 32 31 34 41 45 46 45 44 43 39 36 37 38 37 36 35 35 36 36 36 36 37 37 37 37 38 39 39 39 40 38 38 38 39 40 42 42 42 44 45 47 49 50 50 51 51 51 52 53 54 54 53
50 48 44 42 41 37 36 38 39 37 35 31 28 30 35 41 45 46 45 43 41 37 36 35 35 34 33 34 35 36 36 37 39 39 38 36 34 35 36 37 38 40 43 44 45 46 46 44 43 44 46 47 49 51 52 53 52 52 52 53 53 53 54
47 47 45 43 42 38 36 38 39 36 34 30 28 28 31 35 40 44 43 40 39 38 36 34 34 35 36 37 36 35 35 37 39 42 44 42 39 38 38 38 39 41 44 45 46 45 43 42 42 44 45 47 50 53 54 53 52 52 52 54 55 55 54
45 45 44 41 38 35 35 39 41 39 35 32 31 31 33 33 35 37 38 38 37 38 37 36 35 36 38 39 38 36 34 34 34 36 39 41 41 40 39 38 38 39 41 42 43 43 43 43 42 43 45 46 50 54 54 52 52 51 51 52 52 49 43
40 42 42 40 37 34 33 36 41 41 39 38 39 39 38 37 35 34 35 35 36 38 38 37 36 37 38 39 39 38 36 34 33 33 34 36 37 37 37 37 37 38 39 41 42 42 42 42 41 42 44 47 51 53 52 51 51 52 50 48 43 37 34
34 39 41 40 38 36 35 37 42 43 42 43 44 43 42 40 38 38 38 38 38 38 38 37 36 36 37 38 39 39 38 37 36 35 35 36 36 36 38 38 37 37 38 40 39 38 39 39 39 40 43 46 48 51 51 52 53 52 47 42 38 35 35
30 36 41 40 38 37 38 41 44 45 46 46 44 43 43 44 43 42 42 41 40 39 38 37 37 37 37 37 39 41 41 40 39 37 37 37 38 39 39 38 38 38 38 37 36 35 36 37 38 39 40 40 40 42 44 45 46 44 42 40 39 38 38
27 31 35 36 36 37 38 40 44 46 48 50 47 42 41 43 45 45 45 44 44 43 41 39 39 40 40 40 41 41 40 39 39 38 38 39 39 39 38 38 38 38 38 37 37 36 36 37 38 39 39 38 36 35 35 35 35 36 38 39 39 38 38
22 24 26 30 33 36 36 37 41 45 49 51 50 48 46 45 45 46 46 46 46 47 45 44 43 43 43 43 42 40 39 38 38 38 38 39 38 38 38 39 39 39 39 39 38 37 36 37 38 40 41 40 38 36 33 32 33 35 37 38 38 38 38
22 22 22 24 29 35 37 36 37 41 44 45 45 47 48 46 45 46 47 47 47 47 47 47 47 45 44 42 40 39 38 39 39 39 39 39 39 38 38 39 39 39 38 37 37 37 37 38 39 40 41 41 39 37 35 34 35 36 37 38 39 38 39
25 24 24 24 25 31 36 38 37 36 37 38 39 40 41 41 40 41 43 43 45 45 44 44 43 42 41 40 39 39 39 39 39 39 40 39 39 38 37 36 37 37 36 36 37 37 38 38 39 40 41 40 39 38 37 36 37 37 38 39 39 39 40

ECMWFFLT2_500_spd_036.txt.gz
Wind_Speed
55 55 53 56 58 59 59 59 58 52 47 48 47 43 39 35 38 45 49 49 45 41 36 28 26 29 31 29 27 25 22 21 23 24 21 16 12 13 15 13 12 11 11 11 10 10 10 10 11 12 13 14 15 15 16 17 18 18 18 18 18 17 17
55 54 53 56 58 59 61 60 58 55 54 52 45 41 42 41 42 46 46 45 44 43 37 29 30 33 32 30 28 25 21 20 20 22 22 19 16 16 16 14 13 12 12 11 12 12 11 10 10 11 12 14 14 15 15 16 16 17 17 17 18 17 17
53 54 54 57 58 58 60 61 60 61 60 57 52 47 44 41 43 47 45 42 42 41 36 30 31 32 30 29 27 25 22 18 16 17 19 21 20 18 17 16 14 13 13 12 13 13 12 11 11 11 13 14 14 14 15 15 16 17 17 17 17 17 17
52 55 57 59 60 59 61 64 64 63 62 60 59 56 51 44 39 42 45 46 45 41 35 33 33 32 30 29 27 26 23 19 16 15 15 19 21 19 17 16 15 14 14 14 14 15 14 13 13 13 13 13 13 14 15 15 17 18 18 17 16 16 16
52 57 59 59 59 60 63 66 65 66 67 63 58 56 55 51 42 37 41 47 46 40 36 34 32 33 33 31 30 28 24 21 18 15 15 19 21 21 20 20 18 17 16 17 17 17 16 16 15 14 14 13 14 14 15 16 18 18 18 18 17 17 17
52 55 58 57 58 60 63 64 65 67 67 64 62 60 57 55 51 43 43 49 45 38 38 35 32 34 34 32 32 30 24 21 18 14 15 18 21 21 20 21 23 22 19 19 19 19 18 17 17 16 15 15 15 15 16 17 18 18 18 18 18 18 18
49 51 55 57 57 58 60 63 65 67 67 65 66 66 59 55 56 50 45 49 46 42 43 37 32 34 33 32 33 31 26 23 18 14 14 17 19 18 17 19 24 24 21 20 21 21 20 19 18 18 17 16 17 17 17 17 17 18 19 19 19 19 18
48 48 51 56 58 57 59 63 64 66 69 67 64 65 61 57 60 56 48 49 48 47 45 36 30 31 31 31 32 29 25 22 18 16 18 18 18 17 17 19 22 24 24 22 21 22 23 21 21 20 19 19 19 19 18 18 18 19 20 20 20 19 18
48 48 50 56 60 59 60 63 65 65 67 67 65 65 64 64 64 58 54 57 54 49 46 38 30 29 28 29 30 27 26 23 20 19 21 21 20 20 20 21 23 25 25 22 22 24 25 24 23 23 22 21 19 19 20 19 20 21 21 21 20 19 16
46 47 50 54 57 59 61 63 64 65 65 66 67 67 67 70 68 63 63 63 55 49 50 43 34 31 30 29 29 29 29 26 22 21 22 23 24 22 22 23 24 26 24 21 22 24 25 26 25 25 24 22 19 19 20 21 21 21 21 20 19 18 16
44 44 46 49 51 56 60 61 62 64 65 65 66 69 70 70 70 70 70 66 55 50 50 45 38 35 32 30 29 29 28 24 20 21 24 26 26 23 23 25 25 25 23 20 22 24 26 27 27 26 25 23 20 19 20 21 22 22 21 20 20 18 16
42 40 41 45 49 52 54 57 60 62 64 65 67 70 71 68 70 73 71 68 63 56 52 49 44 36 31 30 29 28 26 22 18 18 21 23 23 22 24 25 24 24 24 23 24 26 27 28 28 28 26 24 22 21 21 21 21 21 21 20 18 16 15
40 39 39 41 44 48 49 53 57 58 59 62 64 67 68 68 72 73 68 67 67 61 55 54 49 40 33 30 30 29 28 25 21 17 18 19 20 21 23 24 25 26 25 25 26 27 28 29 29 28 26 25 24 22 22 21 21 20 19 19 18 16 16
38 38 38 38 41 44 46 49 53 54 55 57 59 61 63 66 70 69 66 67 68 63 56 53 50 47 40 33 31 32 31 29 25 21 19 20 22 23 22 22 24 25 24 24 25 26 28 29 29 27 25 25 23 22 21 20 19 18 17 18 18 18 18
37 37 37 38 39 41 44 47 49 51 51 51 53 57 59 62 65 65 65 68 69 63 55 51 50 51 47 40 35 33 32 30 27 24 24 24 24 25 24 23 24 25 23 23 23 24 26 26 26 25 24 23 21 19 18 16 16 15 16 17 18 18 19
37 36 36 37 38 40 44 47 48 51 52 51 52 56 58 60 61 62 64 66 66 62 57 54 50 49 50 47 39 35 34 31 27 26 28 28 26 26 26 26 26 25 24 23 22 22 22 23 23 23 23 22 19 17 16 15 15 15 16 16 18 19 22
37 35 36 37 38 42 45 45 45 48 51 52 54 56 57 58 58 60 63 63 61 59 57 55 50 48 51 48 40 36 35 33 28 26 29 31 28 26 26 27 27 26 24 23 22 23 24 24 24 24 24 23 20 18 18 17 17 17 17 17 19 21 23
37 36 38 39 40 42 43 40 39 43 47 51 54 55 56 57 57 59 62 60 58 57 55 52 51 50 50 47 40 36 36 34 30 27 30 32 29 27 27 28 27 26 24 23 24 27 29 28 27 27 27 25 23 23 21 20 21 21 21 21 22 23 25
37 37 40 41 40 40 39 36 36 40 45 48 52 54 55 56 58 59 60 58 57 57 54 52 51 50 49 45 41 38 37 35 32 30 32 33 32 29 29 28 28 26 24 25 28 32 33 32 31 31 30 28 27 26 24 23 25 26 26 26 27 27 28
38 41 42 41 39 37 37 38 38 39 42 46 49 52 53 54 55 57 57 56 56 55 54 51 50 49 47 45 42 39 36 35 34 34 34 35 35 32 30 29 29 27 26 28 32 35 36 35 34 34 33 30 29 28 26 26 28 29 29 29 30 31 32
41 42 42 41 39 38 39 40 39 38 40 44 48 50 50 50 51 53 54 54 53 53 52 51 50 47 45 44 42 38 35 35 35 34 34 37 37 35 33 32 32 31 30 32 36 38 38 38 37 37 35 33 31 29 28 29 31 32 32 32 32 33 35
42 42 41 39 39 40 40 40 39 37 38 41 44 47 47 46 48 50 51 52 52 50 50 51 49 45 44 44 41 36 34 35 36 35 35 37 37 36 35 33 33 34 35 36 38 41 42 42 40 38 37 35 32 31 32 32 33 33 33 34 34 36 38
43 44 43 40 38 39 40 41 39 37 38 39 40 43 44 44 45 45 46 49 50 48 49 50 47 43 42 42 39 35 33 34 36 36 37 38 37 36 35 34 34 36 38 40 42 44 46 44 42 40 39 36 34 34 35 35 35 35 35 35 36 37 40
46 46 45 42 39 40 41 42 40 38 38 38 39 41 40 39 42 43 44 46 48 47 48 48 45 42 40 39 37 34 33 33 35 37 39 40 38 37 36 36 37 38 40 43 44 46 47 46 44 42 41 38 37 37 37 37 37 36 36 36 38 40 43
47 47 47 44 43 42 40 40 42 41 39 39 41 42 39 37 39 42 43 45 46 47 47 45 43 40 37 35 36 34 32 33 35 37 40 41 40 39 38 37 38 40 42 44 46 47 48 46 44 44 43 42 41 40 39 39 38 38 38 40 42 44 45
48 49 49 48 47 45 39 40 43 42 41 42 42 41 40 39 39 38 39 42 44 46 45 43 41 39 36 34 35 34 32 33 33 35 39 42 41 40 39 38 39 40 41 43 45 47 47 46 45 44 44 44 42 41 41 40 40 41 42 44 45 45 46
50 50 50 49 49 45 39 38 41 41 42 42 40 39 41 41 38 36 36 38 41 42 42 40 39 39 38 35 34 34 33 33 33 34 36 40 41 41 42 41 39 38 39 40 42 45 46 46 45 45 45 45 43 41 41 40 41 43 44 45 46 46 46
50 50 49 49 47 43 38 37 39 40 41 41 39 39 41 40 37 34 34 35 35 35 35 35 36 38 38 35 34 34 33 34 35 35 36 38 41 42 42 41 38 37 37 39 41 44 46 47 48 49 48 44 40 39 40 40 41 42 43 45 47 48 49
48 48 47 46 43 40 37 38 40 41 41 39 37 38 40 40 38 35 32 31 31 30 30 31 34 37 37 35 33 34 35 35 37 38 38 40 41 41 40 39 38 38 38 40 43 46 48 50 52 50 44 38 37 38 40 40 41 42 42 43 45 47 50
45 44 43 43 41 38 37 38 41 42 41 38 36 36 38 39 38 35 32 30 31 31 30 31 34 37 37 35 34 34 35 36 38 40 41 41 42 40 39 39 39 39 40 42 45 47 48 49 48 43 38 36 37 38 39 40 41 42 41 41 42 44 44
43 41 39 38 38 36 36 38 40 41 41 37 35 34 37 39 37 33 31 30 31 33 33 32 34 37 37 35 35 35 36 36 36 37 39 40 40 39 39 39 39 40 41 42 44 44 44 42 40 38 37 38 38 38 39 40 41 41 41 41 41 41 40
38 36 34 34 34 34 35 38 40 42 42 39 36 35 37 39 37 32 31 33 34 35 35 34 35 38 38 37 37 37 37 36 36 36 37 38 38 38 38 39 40 40 41 41 41 42 42 41 39 38 38 37 38 39 40 40 40 40 40 40 40 40 39
32 30 29 30 31 32 34 37 40 42 42 40 38 37 38 40 39 34 34 39 42 42 41 40 40 39 39 39 39 39 38 38 38 39 39 39 39 39 39 40 40 38 38 39 38 38 39 39 38 38 38 38 40 41 41 41 41 42 41 40 40 40 39
30 27 26 26 26 28 33 37 40 42 41 39 39 40 40 40 39 37 37 42 46 47 46 45 44 43 42 41 40 41 41 41 41 41 40 39 39 40 41 40 39 38 38 39 38 38 39 39 39 39 40 41 42 42 42 43 43 42 41 40 40 40 40
29 24 23 23 23 27 34 39 39 39 40 40 40 42 42 42 40 39 40 43 45 46 47 46 45 45 44 42 41 42 44 44 44 43 42 42 41 42 42 42 42 42 41 39 39 40 40 40 39 40 42 43 43 44 44 43 42 42 41 40 40 41 41
28 24 23 24 25 27 33 38 40 39 39 41 42 42 44 45 43 42 44 47 48 48 49 48 47 45 43 42 43 43 44 45 45 45 45 45 43 42 43 44 44 43 41 39 39 41 41 41 41 43 44 45 45 45 44 42 42 41 41 41 42 42 43
27 25 24 24 27 28 30 34 38 38 37 41 44 44 44 45 47 47 47 50 52 52 51 50 50 47 44 42 43 43 44 45 46 46 45 45 44 44 44 44 42 41 40 41 42 42 42 43 44 45 47 47 46 45 44 42 41 41 41 42 43 43 43